Printer-friendly version

IAU Minor Planet Center

Minor Planet Center

MPEC 2006-Y48 : 2006 YC13

The following Minor Planet Electronic Circular may be linked-to from your own Web pages, but must not otherwise be redistributed electronically.


Read MPEC 2006-Y47 Read MPEC 2006-Y49


M.P.E.C. 2006-Y48                                Issued 2006 Dec. 26, 18:18 UT

     The Minor Planet Electronic Circulars contain information on unusual
         minor planets and routine data on comets.  They are published
   on behalf of Commission 20 of the International Astronomical Union by the
          Minor Planet Center, Smithsonian Astrophysical Observatory,
                          Cambridge, MA 02138, U.S.A.

             Prepared using the Tamkin Foundation Computer Network

                              MPC@CFA.HARVARD.EDU
          URL http://cfa-www.harvard.edu/iau/mpc.html  ISSN 1523-6714

                                   2006 YC13

Observations:
     K06Y13C* C2006 12 24.46294 10 16 38.42 +08 25 45.4          21.1 V EY048G96
     K06Y13C  C2006 12 24.47095 10 16 38.96 +08 25 18.7          21.0 V EY048G96
     K06Y13C  C2006 12 24.47899 10 16 39.46 +08 24 51.5          20.9 V EY048G96
     K06Y13C  C2006 12 24.48683 10 16 40.00 +08 24 25.6          20.9 V EY048G96
     K06Y13C  C2006 12 24.51792 10 16 42.06 +08 22 41.0          20.8 V EY048G96
     K06Y13C  C2006 12 24.52568 10 16 42.56 +08 22 14.8          20.7 V EY048G96
     K06Y13C  C2006 12 24.53365 10 16 43.10 +08 21 47.4          20.3 V EY048G96
     K06Y13C  C2006 12 24.54153 10 16 43.60 +08 21 21.0          21.1 V EY048G96
     K06Y13C  C2006 12 25.03012 10 17 19.44 +07 53 37.9                 EY048246
     K06Y13C  C2006 12 25.03384 10 17 19.75 +07 53 25.6                 EY048246
     K06Y13C  C2006 12 25.03503 10 17 19.77 +07 53 21.0                 EY048246
     K06Y13C  C2006 12 25.03744 10 17 19.86 +07 53 12.4                 EY048246
     K06Y13C  C2006 12 25.03833 10 17 20.07 +07 53 09.7                 EY048246
     K06Y13C  C2006 12 25.15544 10 17 27.76 +07 46 29.2          20.4 R EY048473
     K06Y13C  C2006 12 25.15741 10 17 27.90 +07 46 22.6          20.6 R EY048473
     K06Y13C  C2006 12 25.15942 10 17 28.05 +07 46 15.8          20.3 R EY048473
     K06Y13C tC2006 12 26.35167 10 18 52.91 +06 36 25.8                 EY048291
     K06Y13C tC2006 12 26.35576 10 18 53.13 +06 36 12.1                 EY048291
     K06Y13C  C2006 12 26.36064 10 18 53.49 +06 35 53.9          21.0 V EY048G96
     K06Y13C  C2006 12 26.36319 10 18 53.67 +06 35 45.0          20.4 V EY048G96
     K06Y13C tC2006 12 26.36468 10 18 53.80 +06 35 39.7                 EY048291
     K06Y13C  C2006 12 26.36574 10 18 53.85 +06 35 35.2          21.3 V EY048G96
     K06Y13C  C2006 12 26.36832 10 18 54.00 +06 35 26.5          21.0 V EY048G96
     K06Y13C tC2006 12 26.36928 10 18 54.05 +06 35 23.3                 EY048291
     K06Y13C tC2006 12 26.37309 10 18 54.33 +06 35 10.3                 EY048291
     K06Y13C tC2006 12 26.37682 10 18 54.59 +06 34 57.4                 EY048291
     K06Y13C  C2006 12 26.38318 10 18 54.67 +06 34 31.8          20.1 R EY048734
     K06Y13C  C2006 12 26.39044 10 18 55.14 +06 34 05.8          20.8 R EY048734
     K06Y13C  C2006 12 26.39710 10 18 55.81 +06 33 45.4          21.0 V EY048291
     K06Y13C  C2006 12 26.40093 10 18 56.04 +06 33 31.2          20.6 V EY048291
     K06Y13C  C2006 12 26.40329 10 18 55.98 +06 33 19.3          20.9 R EY048734
     K06Y13C  C2006 12 26.40479 10 18 56.28 +06 33 17.0          21.3 V EY048291
     K06Y13C  C2006 12 26.40999 10 18 56.40 +06 32 55.1          20.7 R EY048734

Observer details:
246 Klet Observatory-KLENOT.  Observers M. Tichy, J. Ticha.  Measurer M. Tichy.
    1.06-m KLENOT Telescope + CCD.
291 LPL/Spacewatch II.  Observer R. S. McMillan.  1.8-m f/2.7 reflector + CCD.
473 Remanzacco.  Observers G. Sostero, E. Guido.  0.45-m f/4.4 Newtonian
    reflector + CCD.
734 Farpoint Observatory.  Observer G. Hug.  Measurer D. Tibbets.  0.7-m
    reflector + CCD.
G96 Mt. Lemmon Survey.  Observers R. A. Kowalski, E. C. Beshore.  Measurers
    E. C. Beshore, E. J. Christensen, G. J. Garradd, A. R. Gibbs, A. D. Grauer,
    R. E. Hill, R. A. Kowalski, S. M. Larson, R. H. McNaught.  1.5-m reflector
    + CCD.

Orbital elements:
2006 YC13                                                Earth MOID = 0.1213 AU
Epoch 2006 Dec. 11.0 TT = JDT 2454080.5                 MPC
M 298.56338              (2000.0)            P               Q
n   0.56858438     Peri.  278.62530     -0.79063778     +0.46517957
a   1.4430214      Node   289.95884     -0.24324443     -0.83534400
e   0.3739367      Incl.   25.05957     -0.56189327     -0.29293066
P   1.73           H   20.3           G   0.15
From 33 observations 2006 Dec. 24-26.

Ephemeris:
2006 YC13                a,e,i = 1.44, 0.37, 25                  q = 0.9034
Date    TT    R. A. (2000) Decl.     Delta      r     Elong.  Phase     V
2006 12 21    10 12.36   +11 28.1    0.530    1.318   118.0    41.3    21.1
2006 12 31    10 24.05   +01 33.4    0.427    1.260   121.5    41.7    20.6
2007 01 10    10 33.76   -12 39.9    0.347    1.203   121.8    44.0    20.1
2007 01 20    10 41.54   -31 53.4    0.297    1.146   116.0    50.5    19.8
2007 01 30    10 48.05   -53 37.8    0.287    1.091   104.0    61.2    20.0
2007 02 09    10 56.61   -73 01.5    0.311    1.039    90.9    71.7    20.4
2007 02 19    12 15.14   -87 47.0    0.355    0.993    80.4    79.0    20.8
2007 03 01    22 25.33   -80 44.0    0.406    0.954    72.9    83.0    21.1
2007 03 11    22 35.95   -71 35.7    0.458    0.925    68.0    84.7    21.4
2007 03 21    22 40.65   -63 30.9    0.505    0.908    65.1    84.6    21.6
2007 03 31    22 45.23   -55 54.2    0.545    0.904    64.0    83.2    21.7

Kyle E. Smalley              (C) Copyright 2006 MPC           M.P.E.C. 2006-Y48

Read MPEC 2006-Y47 Read MPEC 2006-Y49


Our Web policy. Index to the CBAT/MPC/ICQ pages.


Valid HTML 4.01!